Location: Newark
(49.8348°N, 24.0280°E)
Time: 13:31:25
(UTC+00:00)

Explorer 7 - Pass Details

Date: 25 January 2020
Orbit: 485 x 679 km, 50.3° (Epoch: 28 February)

Event Time Altitude Azimuth Distance (km) Brightness Sun altitude
Rises 03:35:05 0° 281° (W) 2,595 - -24.2°
Reaches altitude 10° 03:37:51 10° 260° (W) 1,734 - -23.8°
Maximum altitude 03:40:21 17° 220° (SW) 1,396 - -23.4°
Exits shadow 03:42:34 11° 184° (S) 1,696 9.3 -23.0°
Drops below altitude 10° 03:42:57 10° 180° (S) 1,791 9.4 -23.0°
Sets 03:45:52 0° 159° (SSE) 2,722 10.7 -22.5°
